Hourly Data Report for October 19, 2019

SAINT JOHN A
NEW BRUNSWICK
Current Station Operator: NAVCAN

45°18'58.000" N
65°53'24.000" W
108.80 m
8104901
71609
YSJ

Download Data

Hourly Data (October 2019)
Hourly Data Report for October 19, 2019
TIME
LST
Temp Definition
°C
Dew Point Definition
°C
Rel Hum Definition
%
Precip. Amount Definition
mm

Wind Dir Definition
10's deg

Wind Spd Definition
km/h
Visibility Definition
km
Stn Press Definition
kPa
Hmdx Definition


Wind Chill Definition


Weather Definition


00:00 7.5 4.0 79   30 19 24.1 99.10     LegendNANA
01:00 7.5 3.6 76   31 24 24.1 99.14     LegendNANA
02:00 7.5 3.6 76   30 19 24.1 99.18     Cloudy
03:00 7.4 3.7 78   29 15 24.1 99.22     LegendNANA
04:00 7.6 3.7 76   30 17 24.1 99.24     LegendNANA
05:00 7.7 3.3 74   30 20 24.1 99.29     Cloudy
06:00 7.7 3.1 72   30 27 24.1 99.35     LegendNANA
07:00 7.4 3.7 77   30 16 24.1 99.41     LegendNANA
08:00 7.8 3.6 75   30 19 24.1 99.47     Mostly Cloudy
09:00 8.3 3.4 71   32 31 24.1 99.48     LegendNANA
10:00 9.3 3.2 66   32 31 24.1 99.52     LegendNANA
11:00 9.8 2.6 60   32 29 24.1 99.56     Mostly Cloudy
12:00 9.6 2.3 60   32 28 24.1 99.60     LegendNANA
13:00 9.9 2.1 58   29 22 24.1 99.61     LegendNANA
14:00 10.6 2.0 55   30 32 24.1 99.63     Mostly Cloudy
15:00 11.1 2.5 55   31 20 24.1 99.64     LegendNANA
16:00 10.4 1.5 54   30 26 24.1 99.71     LegendNANA
17:00 9.6 0.8 54   31 25 24.1 99.79     Mostly Cloudy
18:00 8.9 1.1 58   31 21 24.1 99.89     LegendNANA
19:00 8.6 1.3 60   31 18 24.1 99.96     LegendNANA
20:00 7.4 1.0 64   30 15 24.1 100.03     Mostly Cloudy
21:00 6.5 1.3 69   32 17 24.1 100.07     LegendNANA
22:00 6.0 1.2 71   29 12 24.1 100.12     LegendNANA
23:00 5.2 1.1 75   29 10 24.1 100.14     Mainly Clear

Notes on Data Quality.

Legend

  • E = Estimated
  • M = Missing
  • NA = Not Available*
  • [empty] = Indicates an unobserved value
Date modified: